This is the latest recevied weather packets stored in our database for station/object DB7GV-8. If no packets are shown the sender has not sent any weather packets the latest 10 day(s).
| Time | Temp. | Humidity | Pressure | Rain* | Wind** | Luminosity | Snow |
|---|---|---|---|---|---|---|---|
| 1777309302 | 22.78° C | 30% | 1017.1 hPa | - | - | - | - |
| 1777308396 | 23.33° C | 30% | 1017.1 hPa | - | - | - | - |
| 1777307491 | 24.44° C | 27% | 1017.2 hPa | - | - | - | - |
| 1777306586 | 25° C | 27% | 1017.2 hPa | - | - | - | - |
| 1777305681 | 24.44° C | 26% | 1017.3 hPa | - | - | - | - |
| 1777304775 | 25.56° C | 26% | 1017.4 hPa | - | - | - | - |
| 1777303870 | 25.56° C | 26% | 1017.4 hPa | - | - | - | - |
| 1777302964 | 26.11° C | 25% | 1017.5 hPa | - | - | - | - |
| 1777302059 | 25.56° C | 25% | 1017.6 hPa | - | - | - | - |
| 1777301154 | 25.56° C | 25% | 1017.8 hPa | - | - | - | - |
| 1777300248 | 26.11° C | 25% | 1017.8 hPa | - | - | - | - |
| 1777299343 | 26.11° C | 25% | 1018 hPa | - | - | - | - |
| 1777296626 | 26.11° C | 23% | 1018.5 hPa | - | - | - | - |
| 1777295721 | 25.56° C | 23% | 1018.7 hPa | - | - | - | - |
| 1777294815 | 26.11° C | 23% | 1018.7 hPa | - | - | - | - |
| 1777293910 | 26.11° C | 23% | 1018.9 hPa | - | - | - | - |
| 1777292099 | 26.67° C | 23% | 1019.2 hPa | - | - | - | - |
| 1777291194 | 26.11° C | 23% | 1019.4 hPa | - | - | - | - |
| 1777290288 | 26.11° C | 22% | 1019.5 hPa | - | - | - | - |
| 1777289383 | 26.67° C | 23% | 1019.6 hPa | - | - | - | - |
| 1777288478 | 26.11° C | 22% | 1019.8 hPa | - | - | - | - |
| 1777287572 | 26.67° C | 23% | 1019.8 hPa | - | - | - | - |
| 1777286667 | 26.67° C | 24% | 1020 hPa | - | - | - | - |
| 1777284856 | 26.11° C | 26% | 1020.2 hPa | - | - | - | - |
* Rain since midnight (hover to see other rain measurements)
** Current wind speed in m/s (hover to see current wind gust speed)